Helicity
351 363 398 429 356 179 61 16 22 30 31 34 52 84 100 110 81 68 49 44 51 35 33 32 36 34 37 43 38 36 41 37 39 38 43 48 38 51 34 38 38 35 19
234 288 339 371 384 303 241 100 22 27 34 32 21 57 102 116 104 98 66 54 45 37 39 35 59 36 37 44 56 45 49 50 55 80 64 51 38 39 25 25 34 40 16
218 245 233 280 315 394 337 278 162 17 29 38 26 32 53 106 115 97 89 60 51 40 52 63 76 54 63 58 50 52 59 59 65 71 52 43 34 30 24 34 39 45 30
208 206 218 257 246 366 348 344 284 225 58 13 15 20 20 56 84 65 102 54 49 58 55 72 88 89 76 78 57 52 58 63 64 45 44 31 31 29 25 29 40 42 34
135 149 169 257 211 237 319 358 369 368 378 144 12 4 6 7 19 13 61 61 48 59 71 75 99 95 110 89 67 61 58 61 67 55 51 44 29 27 35 33 45 48 36
99 113 93 171 233 218 227 240 323 425 379 388 183 9 -3 -15 -7 2 -5 50 69 76 92 85 107 105 101 90 82 76 68 68 56 54 39 42 24 35 42 33 32 30 29
66 67 80 143 165 213 222 240 224 277 367 378 334 182 4 -8 -20 -13 -19 31 56 93 107 88 101 114 106 87 91 80 78 77 50 43 32 28 36 35 38 34 23 20 26
5 27 41 63 127 170 207 225 243 222 236 343 390 294 176 4 2 -11 -15 -7 1 61 89 88 103 103 100 90 82 77 78 77 70 51 30 15 35 25 32 30 18 20 9
-64 -12 8 49 39 101 148 197 252 237 214 231 371 358 232 105 11 -9 -16 -15 -18 76 94 105 90 69 90 86 75 80 68 73 75 52 20 -4 21 18 26 20 15 -3 8
-29 -42 -66 -10 59 32 0 112 190 252 245 236 217 380 326 169 70 0 0 5 27 71 114 120 85 70 85 88 59 68 70 69 71 85 56 43 37 24 12 18 11 -8 17
-24 -50 -1 -46 -29 67 57 7 92 179 267 239 232 255 311 171 120 23 6 41 42 60 81 104 106 96 119 125 68 101 69 47 58 82 78 94 67 34 10 56 18 26 37
55 19 -49 -2 10 -27 33 58 -6 69 149 191 202 217 171 239 125 116 14 52 84 68 88 89 133 236 172 142 103 105 66 61 66 74 94 89 59 37 18 8 65 45 40
32 41 21 -36 -7 -12 11 44 16 -23 33 161 192 237 228 190 125 50 48 81 159 134 128 111 193 186 161 150 99 78 72 79 72 54 63 80 31 19 32 3 47 42 39
21 -10 13 28 -7 -14 -22 -19 75 75 70 79 198 198 211 182 165 132 60 144 195 194 177 237 229 176 150 158 128 86 79 81 70 62 58 103 65 57 42 13 19 45 35
-17 -12 -1 -34 -38 -26 -10 8 46 100 127 164 174 246 195 183 187 331 200 170 206 213 226 227 222 210 164 192 171 90 93 77 71 71 70 89 85 52 41 21 13 21 35
0 -14 -40 -36 -51 -23 -30 16 40 74 145 198 228 221 271 204 220 245 209 167 207 216 246 233 225 218 182 199 180 121 108 85 65 75 81 72 75 49 16 14 13 8 3
-23 -40 -30 -26 33 12 14 -8 18 76 102 195 269 298 297 290 248 245 260 236 230 210 242 250 267 216 211 216 194 163 102 77 83 97 92 62 70 48 11 -7 21 1 7
-10 -10 -15 -5 20 55 67 29 10 54 90 136 272 302 333 305 256 299 402 292 260 243 228 283 300 299 266 241 266 185 123 87 82 105 90 65 70 70 70 49 23 59 39
21 23 38 74 103 116 104 61 15 34 73 105 185 286 393 358 447 114 167 232 246 292 387 290 320 321 309 289 277 228 140 92 62 100 78 68 93 93 107 93 98 66 41
23 46 70 98 100 91 50 46 23 8 18 83 159 212 382 302 269 257 356 312 334 324 385 347 351 298 289 311 305 275 173 120 89 56 53 69 86 107 100 73 59 48 44
65 99 127 122 93 36 7 3 -6 -14 17 66 121 224 315 382 198 164 199 484 383 273 357 430 466 333 326 329 396 355 280 160 96 80 95 106 133 116 108 70 68 52 27
87 114 109 77 36 -4 -27 -14 -15 -35 -11 16 66 152 182 316 313 183 155 270 306 476 425 474 374 358 348 352 379 409 307 206 129 121 153 134 131 122 106 75 69 59 46
114 106 67 43 23 -2 -5 5 13 -19 -39 -29 19 86 40 243 249 230 255 299 217 531 510 427 389 264 308 280 296 385 424 242 252 165 152 164 142 119 89 78 63 72 65
116 59 51 41 43 18 19 12 12 -20 -35 -36 10 43 -17 182 262 103 152 206 374 518 399 387 337 244 270 298 290 307 332 287 352 269 200 191 143 125 72 96 77 72 71
94 60 45 47 67 28 16 8 4 -10 -38 -38 6 86 11 105 109 267 304 288 475 345 503 439 360 320 309 314 341 370 335 241 251 275 263 247 188 142 119 100 78 63 64
78 53 45 63 68 49 33 15 6 1 -8 -19 33 24 -52 39 96 172 308 21 269 226 383 441 319 282 255 262 294 345 381 425 286 280 264 281 152 135 95 80 82 64 65
Wind_Speed
54 55 55 55 50 46 45 37 32 31 32 25 11 11 14 17 21 18 11 10 14 26 33 38 36 24 28 29 32 38 42 47 49 50 52 52 53 53 54 53 55 58 60
54 54 53 54 51 45 43 43 38 35 34 31 27 13 10 12 15 17 12 8 8 14 26 33 32 25 27 27 28 33 39 43 48 50 51 53 52 53 54 54 55 57 57
53 54 53 55 53 48 45 45 42 41 36 32 32 27 23 12 9 11 9 6 6 7 17 24 21 21 20 22 24 29 36 42 47 50 49 51 51 52 53 53 55 57 59
53 54 55 56 54 51 48 45 44 42 47 40 40 36 37 29 21 24 10 16 8 2 6 18 16 13 17 18 22 27 31 37 44 48 48 49 49 50 51 52 54 56 58
52 55 55 57 56 54 52 49 48 45 44 49 46 48 43 43 41 45 28 17 27 19 8 2 10 10 10 14 19 23 26 30 38 44 45 45 48 49 49 52 53 54 56
54 55 56 58 59 57 55 53 51 51 50 50 51 51 49 49 46 46 47 26 21 23 19 11 6 9 10 9 14 18 21 24 31 38 43 43 46 49 50 51 52 52 55
55 56 57 60 61 60 58 58 57 55 54 53 52 55 56 49 50 50 52 38 23 15 16 13 6 5 8 10 11 14 19 21 25 33 39 41 43 46 48 49 51 52 54
58 59 60 62 64 64 62 61 62 61 59 59 57 55 59 57 48 49 51 46 31 14 14 15 14 5 5 7 9 11 15 18 20 26 35 39 39 43 45 47 49 51 53
60 63 63 65 67 67 66 65 66 66 63 64 61 60 60 63 59 52 53 50 40 17 15 18 18 15 7 6 5 5 8 11 15 21 30 36 38 40 43 45 48 50 53
65 67 67 68 69 70 70 67 70 69 68 67 65 62 64 62 67 66 61 58 44 27 20 21 18 19 13 7 2 3 5 9 12 15 21 29 34 38 40 47 48 49 51
69 70 71 73 74 75 74 73 73 72 72 72 68 65 62 65 66 72 69 65 57 37 26 22 22 21 17 12 6 4 9 17 9 11 15 21 29 35 39 47 45 48 48
77 76 75 77 79 80 78 78 76 76 75 74 72 70 67 71 71 74 74 68 58 49 36 27 25 23 23 22 20 12 21 18 17 10 11 16 24 34 36 45 17 42 43
78 79 81 81 81 82 82 83 80 78 79 79 77 74 74 73 74 79 73 68 61 56 47 35 29 31 32 30 26 25 22 21 21 15 8 13 25 34 36 42 14 26 36
80 81 84 85 86 85 86 86 88 86 84 83 82 79 73 77 84 84 76 67 60 61 54 43 40 38 36 34 26 27 26 23 23 22 8 8 12 27 31 39 13 18 27
83 85 88 89 89 89 92 91 91 92 90 90 87 84 78 74 81 86 69 71 69 64 58 51 47 41 41 39 32 29 27 26 23 20 15 4 7 14 22 26 11 13 13
87 91 92 94 94 95 96 97 96 95 96 94 92 88 86 80 82 86 85 75 78 70 62 56 51 47 45 44 38 34 32 26 25 22 23 16 8 7 23 31 30 33 23
90 92 96 98 99 101 101 101 101 100 99 100 98 94 90 87 85 83 81 65 72 77 67 60 56 52 49 49 43 39 33 28 24 26 21 21 20 15 16 32 22 34 25
92 98 100 101 103 105 106 105 104 105 104 103 102 98 95 92 89 84 90 80 73 80 75 65 60 54 52 52 44 44 40 34 27 26 26 24 26 26 23 15 20 15 18
95 99 103 105 106 108 108 108 107 106 106 106 104 101 98 92 91 86 81 88 73 84 83 71 66 60 56 54 48 45 44 41 34 31 30 30 28 25 24 16 7 7 7
92 97 101 101 100 101 103 104 104 105 104 103 105 106 103 98 95 95 95 90 67 76 87 79 70 64 61 56 52 48 46 45 41 31 35 33 34 28 29 30 13 6 6
92 97 96 92 90 91 93 98 101 105 108 106 105 107 108 104 101 94 92 87 78 79 92 81 67 71 68 58 53 50 51 50 48 38 35 35 33 31 31 38 31 9 4
95 91 85 82 84 85 87 89 93 99 103 107 108 110 109 106 101 102 94 84 75 74 89 81 75 78 75 67 66 55 60 58 57 48 41 40 37 34 34 35 39 21 6
90 83 74 76 81 84 86 87 90 94 97 102 104 105 105 106 107 99 102 100 86 71 83 79 82 90 85 78 69 66 62 65 53 53 49 46 41 40 36 33 40 29 14
83 70 67 73 79 84 86 86 88 94 102 102 104 107 108 108 107 108 103 103 85 86 83 93 81 85 88 84 77 74 68 58 59 56 54 51 50 45 41 36 38 35 22
73 64 65 69 75 81 83 84 87 91 93 96 99 107 108 107 105 106 108 109 110 83 83 88 91 84 90 85 85 79 72 61 59 54 59 58 56 54 51 40 40 43 32
68 61 63 67 75 76 79 83 86 90 91 94 97 103 105 105 104 104 103 105 102 94 91 80 88 87 98 87 90 85 79 72 65 56 53 54 59 58 58 55 49 52 50
Wind_Direction
313 318 322 325 327 316 275 283 285 285 283 299 346 30 26 37 54 50 14 345 45 74 81 93 91 64 70 71 71 73 74 77 80 75 70 63 61 56 55 55 61 59 64
312 317 321 328 333 322 326 293 284 281 284 287 289 323 11 15 38 65 50 5 356 47 78 91 88 71 75 71 65 67 71 72 79 75 69 64 57 55 54 53 58 64 69
315 318 319 329 332 326 325 314 311 282 284 285 283 287 291 328 0 19 10 8 346 331 74 86 74 69 69 65 61 65 70 73 80 80 73 69 60 56 53 53 59 65 68
313 318 318 325 328 326 319 317 321 312 280 279 274 276 271 282 294 290 332 293 298 49 63 87 78 59 68 64 63 64 66 71 79 83 75 72 62 57 56 58 65 66 67
315 319 318 322 323 324 319 315 312 311 306 285 273 267 269 266 269 261 281 289 264 260 265 31 80 62 61 69 68 65 61 64 71 75 71 59 61 58 56 62 71 68 73
313 318 319 320 320 320 318 312 311 305 302 300 288 269 266 262 265 263 258 272 266 256 256 254 110 80 74 68 71 66 59 57 62 70 70 60 63 66 64 65 72 77 75
313 316 315 316 318 317 315 311 309 307 301 299 292 279 265 265 261 259 254 260 262 246 243 227 210 107 85 86 81 70 65 55 50 62 72 66 62 64 65 68 74 76 80
315 316 314 313 313 312 313 310 308 304 300 295 292 284 273 263 265 260 255 255 254 230 223 215 228 207 114 100 89 78 70 57 45 50 66 68 61 65 69 76 87 69 84
316 314 314 313 309 309 309 307 307 303 300 295 291 285 275 264 260 260 254 251 248 225 201 214 228 236 191 127 98 62 44 41 35 46 65 73 62 77 72 89 92 83 90
314 314 312 311 310 308 306 304 302 302 297 297 292 285 275 269 260 256 252 248 246 238 218 216 214 229 215 222 142 71 23 14 21 27 43 58 57 75 65 95 102 103 89
312 314 313 311 309 307 304 302 300 298 298 293 292 287 280 269 265 256 251 248 245 240 231 222 219 214 216 225 242 284 301 295 349 358 27 39 54 76 78 107 98 93 79
311 312 313 312 309 306 303 301 298 295 293 291 290 285 283 271 262 259 252 249 243 241 235 229 221 216 225 239 255 271 279 285 291 338 24 42 64 88 88 116 352 75 71
311 312 313 311 309 307 303 299 297 294 291 288 287 287 280 277 265 258 253 250 243 237 236 233 227 231 231 240 252 262 271 277 275 293 358 41 85 100 95 110 314 43 62
313 313 313 313 310 307 303 300 294 291 289 285 282 283 282 275 263 261 249 246 240 234 235 233 235 237 235 239 248 254 262 271 268 271 315 52 23 84 83 111 328 21 49
314 313 313 311 309 307 303 299 294 290 286 282 280 278 279 277 269 259 256 241 237 234 233 234 235 236 239 237 244 248 255 262 264 263 270 309 25 53 70 85 352 302 343
315 314 313 310 308 305 301 297 293 289 284 280 277 275 273 274 270 263 253 240 235 235 233 234 234 236 238 236 238 244 250 255 257 256 259 270 277 343 94 100 99 100 82
316 315 313 310 307 303 299 295 291 287 283 278 274 271 271 269 269 265 257 233 233 234 233 232 234 237 236 235 236 240 244 248 250 251 253 257 259 270 94 115 85 118 81
318 316 313 310 307 302 298 294 290 285 281 276 272 268 266 266 265 263 259 249 237 234 233 229 231 233 233 232 230 237 242 245 246 248 250 250 250 251 258 280 86 63 69
321 319 315 312 308 303 297 292 288 283 278 274 270 265 263 262 261 259 252 244 238 233 232 231 230 231 231 229 228 232 239 241 243 246 246 244 243 246 251 267 331 24 338
324 322 319 316 312 307 299 292 286 281 276 272 266 262 260 258 257 256 251 256 235 235 230 229 226 230 230 227 227 230 236 239 240 241 242 241 239 243 249 251 277 14 356
327 325 324 322 317 312 304 292 285 277 273 269 265 261 256 255 253 254 250 255 232 233 226 224 226 226 228 224 222 227 235 237 238 241 237 236 234 243 249 248 253 284 360
329 329 328 324 318 313 306 296 287 280 272 266 263 259 254 251 250 248 248 244 232 228 224 222 222 227 228 222 225 222 230 236 238 240 236 235 234 243 250 252 246 261 294
334 334 331 325 320 315 308 299 291 281 273 265 260 255 252 249 246 247 245 244 243 214 222 224 223 224 226 224 224 227 228 234 229 238 236 235 235 241 248 252 247 256 264
338 337 332 327 323 317 308 299 291 281 270 264 259 255 251 247 245 244 244 240 248 227 226 221 223 224 223 223 226 230 230 234 228 235 237 236 237 241 245 249 248 251 254
342 338 334 331 327 321 310 299 292 282 273 266 260 254 248 245 242 242 242 241 238 226 221 223 223 223 224 225 225 227 229 230 231 235 232 233 238 241 244 247 249 247 250
345 341 338 336 330 327 316 302 291 282 274 265 257 250 246 243 239 239 240 239 235 231 227 223 221 223 223 226 226 228 227 226 229 232 234 231 235 239 242 245 247 246 245